Home > Weather > Nagoya > Past weeks

Flag for Japan Past Weather in Nagoya, Japan — Yesterday and Last 2 Weeks

Now
73 °F

Sprinkles. Broken clouds.


Feels Like: 72 °F
Forecast: 67 / 79 °F
Wind: 3 mph from North

Location: Nagoya Airport

Current Time: Jun 25, 2016 at 8:56:24 AM

Latest Report: Jun 25, 2016 at 8:00 AM


Visibility: N/A

Pressure: 29.59 "Hg

Humidity: 89%

Dew Point: 70 °F

Location of NagoyaLocation

Past Weather in Nagoya — Graph

°F

Nagoya Temperature Yesterday

Maximum temperature yesterday: 77 °F (at 11:00 AM)
Minimum temperature yesterday: 72 °F (at 1:30 AM)
Average temperature yesterday: 73 °F

High & Low Weather Summary for the Past Weeks

 TemperatureHumidityPressure
High84 °F (Jun 18, 1:30 PM)94% (Jun 12, 7:30 PM)30.01 "Hg (Jun 12, 7:30 PM)
Low68 °F (Jun 13, 4:00 AM)43% (Jun 18, 4:00 PM)29.42 "Hg (Jun 13, 4:30 PM)
Average74 °F78%29.74 "Hg
* Reported Jun 10 7:00 AM — Jun 25 7:30 AM, Nagoya, Weather by CustomWeather, © 2016

Note: Actual official high and low records may vary slightly from our data, if they occured in-between our weather recording intervals... More about our weather records

Advertising

Nagoya Weather History for the Previous 24 Hours

Scroll right to see more
 ConditionsComfort  
Time TempWeatherWind HumidityBarometerVisibility
7:30 AM
Sat, Jun 25
75 °FSprinkles. Partly sunny.6 mph89%29.59 "Hg4 mi
7:00 AM73 °FSprinkles. Broken clouds.6 mph94%29.56 "Hg4 mi
6:30 AM75 °FScattered showers. Broken clouds.3 mph89%29.56 "Hg5 mi
6:00 AM73 °FScattered showers. Broken clouds.10 mph94%29.56 "Hg5 mi
5:30 AM75 °FBroken clouds.9 mph89%29.53 "HgN/A
5:00 AM75 °FBroken clouds.14 mph89%29.53 "HgN/A
4:30 AM73 °FPartly cloudy.13 mph89%29.50 "HgN/A
4:00 AM75 °FSprinkles. Partly cloudy.15 mph83%29.50 "HgN/A
3:30 AM73 °FSprinkles. Partly cloudy.17 mph89%29.50 "Hg6 mi
3:00 AM73 °FLots of rain. Fog.5 mph89%29.50 "Hg1 mi
2:30 AM73 °FRain showers. Partly cloudy.9 mph94%29.50 "Hg4 mi
2:00 AM73 °FPartly cloudy.3 mph94%29.47 "Hg4 mi
1:30 AM73 °FPartly cloudy.8 mph94%29.47 "Hg5 mi
1:00 AM73 °FPartly cloudy.9 mph89%29.50 "HgN/A
12:30 AM73 °FPassing clouds.12 mph89%29.50 "HgN/A
12:00 AM73 °FPassing clouds.16 mph83%29.53 "HgN/A
11:30 PM
Fri, Jun 24
72 °FPassing clouds.18 mph88%29.53 "HgN/A
11:00 PM72 °FScattered showers. Passing clouds.18 mph88%29.56 "HgN/A
10:30 PM72 °FScattered showers. Passing clouds.20 mph88%29.56 "HgN/A
10:00 PM72 °FPassing clouds.23 mph83%29.56 "HgN/A
9:30 PM72 °FPassing clouds.21 mph88%29.59 "HgN/A
9:00 PM72 °FSprinkles. Passing clouds.13 mph83%29.62 "Hg6 mi
8:30 PM72 °FSprinkles. Passing clouds.14 mph83%29.62 "Hg6 mi
8:00 PM72 °FPartly cloudy.16 mph88%29.62 "HgN/A
7:30 PM72 °FSprinkles. Partly cloudy.18 mph88%29.62 "HgN/A
7:00 PM72 °FScattered showers. Broken clouds.17 mph88%29.59 "HgN/A
6:30 PM72 °FScattered showers. Partly sunny.14 mph88%29.65 "HgN/A
6:00 PM72 °FSprinkles. Broken clouds.13 mph88%29.68 "Hg5 mi
5:30 PM72 °FScattered showers. Broken clouds.14 mph88%29.65 "Hg6 mi
5:00 PM72 °FSprinkles. Broken clouds.16 mph88%29.68 "HgN/A
4:30 PM72 °FSprinkles. Broken clouds.15 mph88%29.68 "HgN/A
4:00 PM72 °FSprinkles. Broken clouds.13 mph83%29.71 "Hg5 mi
3:30 PM72 °FLots of rain. Fog.6 mph83%29.71 "Hg1 mi
3:00 PM72 °FSprinkles. Fog.17 mph88%29.68 "Hg3 mi
2:30 PM73 °FLots of rain. Fog.12 mph89%29.68 "Hg2 mi
2:00 PM73 °FSprinkles. Broken clouds.10 mph89%29.71 "Hg4 mi
1:30 PM73 °FSprinkles. Partly sunny.10 mph83%29.71 "Hg4 mi
1:00 PM77 °FScattered showers. Broken clouds.13 mph69%29.68 "HgN/A
12:30 PM77 °FBroken clouds.8 mph74%29.74 "HgN/A
12:00 PM77 °FBroken clouds.8 mph69%29.74 "HgN/A
11:30 AM75 °FPartly sunny.6 mph74%29.74 "HgN/A
11:00 AM77 °FPartly sunny.9 mph74%29.74 "HgN/A
10:30 AM75 °FPartly sunny.5 mph74%29.74 "HgN/A
10:00 AM75 °FPartly sunny.6 mph74%29.74 "HgN/A
9:30 AM75 °FPartly sunny.6 mph74%29.74 "HgN/A
9:00 AM75 °FPartly sunny.5 mph74%29.71 "HgN/A
8:30 AM73 °FPartly sunny.3 mph74%29.74 "HgN/A
8:00 AM73 °FPartly sunny.3 mph74%29.74 "HgN/A
Weather by CustomWeather, © 2016

See weather overviewHow to use our weather pages